| time (UTC) | temp C | wind direction | speed KPH | gust KPH | rain 1hr cm | rain 24hr cm | rain mn cm | humidity % | barometer mb |
| 20260505201210 | 23 | 304 | 4.8 | 6.4 | 0.00 | 0.00 | 0.00 | 27 | 1011.9 |
| 20260505200708 | 23 | 173 | 12.9 | 14.5 | 0.00 | 0.00 | 0.00 | 28 | 1011.9 |
| 20260505200204 | 23 | 159 | 6.4 | 16.1 | 0.00 | 0.00 | 0.00 | 28 | 1011.9 |
| 20260505195700 | 23 | 286 | 3.2 | 11.3 | 0.00 | 0.00 | 0.00 | 27 | 1012.0 |
| 20260505195158 | 23 | 210 | 1.6 | 4.8 | 0.00 | 0.00 | 0.00 | 27 | 1012.1 |
| 20260505194655 | 22 | 190 | 8.0 | 12.9 | 0.00 | 0.00 | 0.00 | 28 | 1012.1 |
| 20260505194151 | 22 | 180 | 3.2 | 4.8 | 0.00 | 0.00 | 0.00 | 29 | 1012.0 |
| 20260505193647 | 22 | 213 | 0.0 | 9.7 | 0.00 | 0.00 | 0.00 | 28 | 1012.1 |
| 20260505193144 | 23 | 294 | 4.8 | 9.7 | 0.00 | 0.00 | 0.00 | 28 | 1012.2 |
| 20260505192643 | 23 | 256 | 4.8 | 11.3 | 0.00 | 0.00 | 0.00 | 27 | 1012.3 |
| 20260505192141 | 23 | 34 | 1.6 | 6.4 | 0.00 | 0.00 | 0.00 | 27 | 1012.2 |
| 20260505191639 | 22 | 331 | 3.2 | 11.3 | 0.00 | 0.00 | 0.00 | 29 | 1012.3 |
| 20260505191137 | 22 | 356 | 4.8 | 9.7 | 0.00 | 0.00 | 0.00 | 28 | 1012.3 |
| 20260505190632 | 22 | 300 | 4.8 | 11.3 | 0.00 | 0.00 | 0.00 | 27 | 1012.4 |
| 20260505190127 | 21 | 359 | 9.7 | 16.1 | 0.00 | 0.00 | 0.00 | 30 | 1012.4 |
| 20260505185624 | 21 | 88 | 8.0 | 11.3 | 0.00 | 0.00 | 0.00 | 30 | 1012.6 |
| 20260505185120 | 22 | 14 | 3.2 | 9.7 | 0.00 | 0.00 | 0.00 | 29 | 1012.7 |
| 20260505184617 | 22 | 279 | 0.0 | 1.6 | 0.00 | 0.00 | 0.00 | 28 | 1012.9 |
| 20260505184114 | 22 | 258 | 3.2 | 4.8 | 0.00 | 0.00 | 0.00 | 28 | 1012.7 |
| 20260505183611 | 21 | 300 | 8.0 | 9.7 | 0.00 | 0.00 | 0.00 | 30 | 1012.9 |
| 20260505183109 | 21 | 313 | 6.4 | 14.5 | 0.00 | 0.00 | 0.00 | 31 | 1012.9 |
| 20260505182604 | 21 | 330 | 3.2 | 11.3 | 0.00 | 0.00 | 0.00 | 30 | 1012.9 |
| 20260505182101 | 20 | 80 | 6.4 | 9.7 | 0.00 | 0.00 | 0.00 | 31 | 1012.8 |
| 20260505181558 | 21 | 337 | 3.2 | 6.4 | 0.00 | 0.00 | 0.00 | 30 | 1013.1 |
| 20260505181055 | 22 | 354 | 3.2 | 9.7 | 0.00 | 0.00 | 0.00 | 30 | 1013.1 |
| 20260505180550 | 22 | 272 | 0.0 | 4.8 | 0.00 | 0.00 | 0.00 | 29 | 1013.3 |
| 20260505180049 | 21 | 342 | 3.2 | 4.8 | 0.00 | 0.00 | 0.00 | 30 | 1013.8 |
| 20260505175549 | 20 | 19 | 1.6 | 9.7 | 0.00 | 0.00 | 0.00 | 31 | 1013.3 |
| 20260505175046 | 20 | 342 | 11.3 | 14.5 | 0.00 | 0.00 | 0.00 | 32 | 1013.2 |
| 20260505174543 | 20 | 0 | 3.2 | 6.4 | 0.00 | 0.00 | 0.00 | 33 | 1013.3 |
| 20260505174039 | 20 | 198 | 1.6 | 4.8 | 0.00 | 0.00 | 0.00 | 32 | 1013.5 |
| 20260505173536 | 18 | 333 | 4.8 | 11.3 | 0.00 | 0.00 | 0.00 | 34 | 1013.3 |
| 20260505173033 | 18 | 312 | 0.0 | 3.2 | 0.00 | 0.00 | 0.00 | 35 | 1013.5 |
| 20260505172531 | 18 | 321 | 3.2 | 11.3 | 0.00 | 0.00 | 0.00 | 35 | 1013.6 |
| 20260505172027 | 18 | 0 | 4.8 | 12.9 | 0.00 | 0.00 | 0.00 | 35 | 1013.5 |
| 20260505171522 | 18 | 33 | 3.2 | 4.8 | 0.00 | 0.00 | 0.00 | 35 | 1013.5 |
| 20260505171019 | 18 | 5 | 1.6 | 9.7 | 0.00 | 0.00 | 0.00 | 35 | 1013.6 |
| 20260505170516 | 18 | 57 | 9.7 | 12.9 | 0.00 | 0.00 | 0.00 | 36 | 1013.3 |
| 20260505170012 | 18 | 38 | 3.2 | 14.5 | 0.00 | 0.00 | 0.00 | 36 | 1013.5 |
| 20260505165508 | 18 | 347 | 4.8 | 9.7 | 0.00 | 0.00 | 0.00 | 35 | 1013.5 |
| 20260505165004 | 18 | 58 | 17.7 | 17.7 | 0.00 | 0.00 | 0.00 | 37 | 1013.5 |
| 20260505164500 | 18 | 14 | 4.8 | 11.3 | 0.00 | 0.00 | 0.00 | 36 | 1013.2 |
| 20260505163958 | 18 | 3 | 6.4 | 9.7 | 0.00 | 0.00 | 0.00 | 37 | 1013.5 |
| 20260505163456 | 18 | 355 | 1.6 | 6.4 | 0.00 | 0.00 | 0.00 | 37 | 1013.5 |
| 20260505162955 | 17 | 13 | 11.3 | 12.9 | 0.00 | 0.00 | 0.00 | 37 | 1013.3 |
| 20260505162451 | 17 | 53 | 3.2 | 9.7 | 0.00 | 0.00 | 0.00 | 39 | 1013.7 |
| 20260505161948 | 17 | 345 | 6.4 | 12.9 | 0.00 | 0.00 | 0.00 | 39 | 1013.8 |
| 20260505161444 | 17 | 76 | 9.7 | 12.9 | 0.00 | 0.00 | 0.00 | 38 | 1013.7 |
| 20260505160942 | 17 | 330 | 8.0 | 12.9 | 0.00 | 0.00 | 0.00 | 39 | 1013.8 |
| 20260505160440 | 17 | 31 | 6.4 | 20.9 | 0.00 | 0.00 | 0.00 | 39 | 1013.9 |
| 20260505152916 | 16 | 348 | 4.8 | 11.3 | 0.00 | 0.00 | 0.00 | 43 | 1013.5 |
| 20260505152414 | 16 | 2 | 3.2 | 11.3 | 0.00 | 0.00 | 0.00 | 44 | 1013.6 |
| 20260505151913 | 16 | 51 | 3.2 | 9.7 | 0.00 | 0.00 | 0.00 | 43 | 1013.8 |
| 20260505151410 | 16 | 347 | 8.0 | 9.7 | 0.00 | 0.00 | 0.00 | 44 | 1013.7 |
| 20260505150907 | 15 | 37 | 3.2 | 16.1 | 0.00 | 0.00 | 0.00 | 45 | 1013.8 |
| 20260505150405 | 15 | 38 | 9.7 | 14.5 | 0.00 | 0.00 | 0.00 | 45 | 1013.9 |
| 20260505140334 | 13 | 4 | 4.8 | 20.9 | 0.00 | 0.00 | 0.00 | 52 | 1012.7 |
| 20260505130257 | 13 | 322 | 1.6 | 11.3 | 0.00 | 0.00 | 0.00 | 55 | 1012.0 |
| 20260505124748 | 13 | 22 | 4.8 | 12.9 | 0.00 | 0.00 | 0.00 | 54 | 1012.1 |
| 20260505124245 | 13 | 28 | 9.7 | 14.5 | 0.00 | 0.00 | 0.00 | 54 | 1011.8 |
| 20260505123740 | 14 | 345 | 6.4 | 16.1 | 0.00 | 0.00 | 0.00 | 52 | 1011.5 |
| 20260505123237 | 14 | 315 | 3.2 | 9.7 | 0.00 | 0.00 | 0.00 | 51 | 1011.8 |
| 20260505122734 | 14 | 312 | 9.7 | 14.5 | 0.00 | 0.00 | 0.00 | 51 | 1011.6 |
| 20260505122231 | 15 | 12 | 11.3 | 16.1 | 0.00 | 0.00 | 0.00 | 49 | 1011.4 |
| 20260505121728 | 15 | 332 | 3.2 | 6.4 | 0.00 | 0.00 | 0.00 | 48 | 1011.3 |
| 20260505121224 | 15 | 6 | 3.2 | 12.9 | 0.00 | 0.00 | 0.00 | 47 | 1011.3 |
| 20260505120721 | 15 | 54 | 4.8 | 9.7 | 0.00 | 0.00 | 0.00 | 44 | 1011.2 |
| 20260505120217 | 16 | 29 | 6.4 | 11.3 | 0.00 | 0.00 | 0.00 | 39 | 1011.1 |
| 20260505115715 | 17 | 341 | 3.2 | 9.7 | 0.00 | 0.00 | 0.00 | 36 | 1011.0 |
| 20260505115213 | 18 | 322 | 11.3 | 16.1 | 0.00 | 0.00 | 0.00 | 31 | 1010.9 |
| 20260505114711 | 18 | 355 | 3.2 | 11.3 | 0.00 | 0.00 | 0.00 | 31 | 1010.5 |
| 20260505114206 | 18 | 319 | 12.9 | 22.5 | 0.00 | 0.00 | 0.00 | 30 | 1010.5 |
| 20260505113703 | 18 | 1 | 6.4 | 12.9 | 0.00 | 0.00 | 0.00 | 30 | 1010.6 |
| 20260505113200 | 18 | 269 | 6.4 | 16.1 | 0.00 | 0.00 | 0.00 | 30 | 1010.4 |
| 20260505112656 | 18 | 299 | 6.4 | 12.9 | 0.00 | 0.00 | 0.00 | 30 | 1010.1 |
| 20260505112154 | 18 | 279 | 3.2 | 12.9 | 0.00 | 0.00 | 0.00 | 30 | 1009.8 |
| 20260505111653 | 18 | 313 | 3.2 | 9.7 | 0.00 | 0.00 | 0.00 | 29 | 1009.5 |
| 20260505111149 | 18 | 315 | 3.2 | 9.7 | 0.00 | 0.00 | 0.00 | 29 | 1009.9 |
| 20260505110646 | 18 | 236 | 3.2 | 9.7 | 0.00 | 0.00 | 0.00 | 29 | 1009.8 |
| 20260505110143 | 17 | 280 | 6.4 | 9.7 | 0.00 | 0.00 | 0.00 | 30 | 1010.1 |
| 20260505102119 | 17 | 318 | 3.2 | 4.8 | 0.00 | 0.00 | 0.00 | 30 | 1009.9 |
| 20260505101617 | 17 | 332 | 3.2 | 4.8 | 0.00 | 0.00 | 0.00 | 30 | 1010.2 |
| 20260505101113 | 17 | 216 | 6.4 | 12.9 | 0.00 | 0.00 | 0.00 | 30 | 1010.2 |
| 20260505100610 | 16 | 263 | 3.2 | 11.3 | 0.00 | 0.00 | 0.00 | 31 | 1010.2 |
| 20260505100107 | 16 | 223 | 3.2 | 9.7 | 0.00 | 0.00 | 0.00 | 31 | 1010.3 |
| 20260505095603 | 16 | 283 | 1.6 | 4.8 | 0.00 | 0.00 | 0.00 | 31 | 1009.9 |
| 20260505095059 | 16 | 190 | 1.6 | 6.4 | 0.00 | 0.00 | 0.00 | 32 | 1010.3 |
| 20260505094556 | 16 | 227 | 3.2 | 4.8 | 0.00 | 0.00 | 0.00 | 32 | 1010.2 |
| 20260505094052 | 16 | 312 | 4.8 | 11.3 | 0.00 | 0.00 | 0.00 | 31 | 1009.9 |
| 20260505093549 | 16 | 235 | 1.6 | 9.7 | 0.00 | 0.00 | 0.00 | 31 | 1010.1 |
| 20260505093046 | 16 | 291 | 0.0 | 3.2 | 0.00 | 0.00 | 0.00 | 32 | 1010.1 |
| 20260505092544 | 16 | 262 | 1.6 | 3.2 | 0.00 | 0.00 | 0.00 | 32 | 1009.7 |
| 20260505092042 | 16 | 329 | 4.8 | 9.7 | 0.00 | 0.00 | 0.00 | 32 | 1009.7 |
| 20260505091538 | 16 | 227 | 3.2 | 6.4 | 0.00 | 0.00 | 0.00 | 30 | 1009.8 |
| 20260505091037 | 17 | 267 | 1.6 | 1.6 | 0.00 | 0.00 | 0.00 | 29 | 1009.6 |
| 20260505090534 | 17 | 303 | 3.2 | 11.3 | 0.00 | 0.00 | 0.00 | 28 | 1009.5 |
| 20260505090032 | 18 | 312 | 3.2 | 9.7 | 0.00 | 0.00 | 0.00 | 27 | 1009.6 |
| 20260505085530 | 17 | 315 | 3.2 | 6.4 | 0.00 | 0.00 | 0.00 | 28 | 1009.6 |
| 20260505085028 | 17 | 210 | 4.8 | 6.4 | 0.00 | 0.00 | 0.00 | 28 | 1009.6 |
| 20260505084526 | 17 | 257 | 3.2 | 9.7 | 0.00 | 0.00 | 0.00 | 28 | 1009.6 |
| 20260505084023 | 17 | 297 | 1.6 | 12.9 | 0.00 | 0.00 | 0.00 | 29 | 1009.6 |
| 20260505083520 | 17 | 285 | 3.2 | 3.2 | 0.00 | 0.00 | 0.00 | 29 | 1009.6 |
| 20260505083017 | 17 | 266 | 1.6 | 3.2 | 0.00 | 0.00 | 0.00 | 29 | 1009.6 |
| 20260505082512 | 17 | 231 | 1.6 | 4.8 | 0.00 | 0.00 | 0.00 | 29 | 1009.5 |
| 20260505082009 | 17 | 235 | 0.0 | 6.4 | 0.00 | 0.00 | 0.00 | 29 | 1009.4 |
| 20260505081506 | 17 | 261 | 1.6 | 6.4 | 0.00 | 0.00 | 0.00 | 29 | 1009.4 |
| 20260505081003 | 17 | 312 | 3.2 | 6.4 | 0.00 | 0.00 | 0.00 | 29 | 1009.2 |
| 20260505080459 | 17 | 207 | 3.2 | 11.3 | 0.00 | 0.00 | 0.00 | 29 | 1009.4 |
| 20260505075955 | 17 | 266 | 3.2 | 6.4 | 0.00 | 0.00 | 0.00 | 29 | 1009.3 |
| 20260505075452 | 17 | 256 | 3.2 | 4.8 | 0.00 | 0.00 | 0.00 | 29 | 1009.4 |
| 20260505074949 | 17 | 243 | 1.6 | 4.8 | 0.00 | 0.00 | 0.00 | 30 | 1009.4 |
| 20260505074446 | 17 | 289 | 3.2 | 4.8 | 0.00 | 0.00 | 0.00 | 30 | 1009.5 |
| 20260505073943 | 17 | 251 | 3.2 | 4.8 | 0.00 | 0.00 | 0.00 | 30 | 1009.5 |
| 20260505073441 | 17 | 254 | 1.6 | 4.8 | 0.00 | 0.00 | 0.00 | 30 | 1009.8 |
| 20260505072938 | 17 | 241 | 6.4 | 9.7 | 0.00 | 0.00 | 0.00 | 29 | 1009.6 |
| 20260505072434 | 17 | 228 | 1.6 | 6.4 | 0.00 | 0.00 | 0.00 | 29 | 1009.3 |
| 20260505071930 | 17 | 234 | 3.2 | 3.2 | 0.00 | 0.00 | 0.00 | 29 | 1009.3 |
| 20260505071426 | 18 | 272 | 3.2 | 11.3 | 0.00 | 0.00 | 0.00 | 29 | 1009.5 |
| 20260505070925 | 18 | 18 | 4.8 | 11.3 | 0.00 | 0.00 | 0.00 | 29 | 1009.6 |
| 20260505070421 | 18 | 274 | 4.8 | 9.7 | 0.00 | 0.00 | 0.00 | 29 | 1009.6 |
| 20260505065916 | 18 | 242 | 1.6 | 4.8 | 0.00 | 0.00 | 0.00 | 29 | 1009.4 |
| 20260505065413 | 18 | 230 | 4.8 | 4.8 | 0.00 | 0.00 | 0.00 | 29 | 1009.6 |
| 20260505064910 | 18 | 268 | 1.6 | 6.4 | 0.00 | 0.00 | 0.00 | 29 | 1009.6 |
| 20260505064407 | 18 | 249 | 4.8 | 6.4 | 0.00 | 0.00 | 0.00 | 29 | 1009.5 |
| 20260505063906 | 18 | 273 | 1.6 | 4.8 | 0.00 | 0.00 | 0.00 | 29 | 1009.6 |
| 20260505063402 | 18 | 288 | 1.6 | 6.4 | 0.00 | 0.00 | 0.00 | 29 | 1009.6 |
| 20260505062858 | 18 | 261 | 1.6 | 6.4 | 0.00 | 0.00 | 0.00 | 29 | 1009.6 |
| 20260505062355 | 18 | 218 | 3.2 | 9.7 | 0.00 | 0.00 | 0.00 | 29 | 1009.5 |
| 20260505061852 | 18 | 248 | 1.6 | 4.8 | 0.00 | 0.00 | 0.00 | 28 | 1009.5 |
| 20260505061351 | 18 | 262 | 1.6 | 4.8 | 0.00 | 0.00 | 0.00 | 27 | 1009.7 |
| 20260505060848 | 18 | 214 | 3.2 | 6.4 | 0.00 | 0.00 | 0.00 | 27 | 1009.7 |
| 20260505060344 | 19 | 284 | 3.2 | 3.2 | 0.00 | 0.00 | 0.00 | 27 | 1009.5 |
| 20260505055840 | 19 | 284 | 1.6 | 4.8 | 0.00 | 0.00 | 0.00 | 26 | 1009.6 |
| 20260505055336 | 19 | 240 | 1.6 | 6.4 | 0.00 | 0.00 | 0.00 | 26 | 1009.8 |
| 20260505054834 | 19 | 335 | 1.6 | 4.8 | 0.00 | 0.00 | 0.00 | 26 | 1009.4 |
| 20260505054331 | 19 | 269 | 1.6 | 11.3 | 0.00 | 0.00 | 0.00 | 26 | 1009.7 |
| 20260505053829 | 19 | 278 | 1.6 | 6.4 | 0.00 | 0.00 | 0.00 | 26 | 1009.5 |
| 20260505053326 | 19 | 307 | 6.4 | 9.7 | 0.00 | 0.00 | 0.00 | 26 | 1009.6 |
| 20260505052822 | 20 | 280 | 4.8 | 6.4 | 0.00 | 0.00 | 0.00 | 25 | 1009.7 |
| 20260505052319 | 20 | 280 | 3.2 | 14.5 | 0.00 | 0.00 | 0.00 | 25 | 1009.7 |
| 20260505051817 | 20 | 269 | 4.8 | 9.7 | 0.00 | 0.00 | 0.00 | 25 | 1009.9 |
| 20260505051314 | 20 | 266 | 3.2 | 6.4 | 0.00 | 0.00 | 0.00 | 25 | 1009.8 |
| 20260505050812 | 20 | 57 | 1.6 | 6.4 | 0.00 | 0.00 | 0.00 | 25 | 1009.9 |
| 20260505050310 | 19 | 240 | 3.2 | 6.4 | 0.00 | 0.00 | 0.00 | 25 | 1010.1 |
| 20260505041740 | 20 | 257 | 3.2 | 11.3 | 0.00 | 0.00 | 0.00 | 24 | 1010.1 |
| 20260505041237 | 20 | 234 | 1.6 | 11.3 | 0.00 | 0.00 | 0.00 | 24 | 1009.8 |
| 20260505040734 | 20 | 337 | 3.2 | 11.3 | 0.00 | 0.00 | 0.00 | 24 | 1009.8 |
| 20260505040232 | 20 | 238 | 8.0 | 16.1 | 0.00 | 0.00 | 0.00 | 24 | 1009.8 |
| 20260505035729 | 20 | 304 | 8.0 | 14.5 | 0.00 | 0.00 | 0.00 | 24 | 1009.8 |
| 20260505035224 | 20 | 290 | 4.8 | 9.7 | 0.00 | 0.00 | 0.00 | 24 | 1009.8 |
| 20260505034721 | 20 | 222 | 3.2 | 9.7 | 0.00 | 0.00 | 0.00 | 24 | 1009.7 |
| 20260505034218 | 20 | 310 | 4.8 | 11.3 | 0.00 | 0.00 | 0.00 | 24 | 1009.7 |
| 20260505033715 | 20 | 238 | 1.6 | 6.4 | 0.00 | 0.00 | 0.00 | 24 | 1009.6 |
| 20260505033213 | 20 | 244 | 3.2 | 11.3 | 0.00 | 0.00 | 0.00 | 25 | 1009.8 |
| 20260505032711 | 20 | 219 | 6.4 | 12.9 | 0.00 | 0.00 | 0.00 | 25 | 1009.7 |
| 20260505032206 | 20 | 154 | 3.2 | 11.3 | 0.00 | 0.00 | 0.00 | 26 | 1009.6 |
| 20260505031704 | 20 | 259 | 3.2 | 6.4 | 0.00 | 0.00 | 0.00 | 26 | 1009.6 |
| 20260505031200 | 20 | 263 | 3.2 | 11.3 | 0.00 | 0.00 | 0.00 | 26 | 1009.7 |
| 20260505030657 | 20 | 268 | 3.2 | 6.4 | 0.00 | 0.00 | 0.00 | 26 | 1009.7 |
| 20260505030153 | 20 | 261 | 3.2 | 6.4 | 0.00 | 0.00 | 0.00 | 26 | 1009.8 |
| 20260505025649 | 20 | 278 | 6.4 | 11.3 | 0.00 | 0.00 | 0.00 | 26 | 1009.7 |
| 20260505025148 | 20 | 273 | 6.4 | 9.7 | 0.00 | 0.00 | 0.00 | 26 | 1009.7 |
| 20260505024645 | 20 | 334 | 1.6 | 6.4 | 0.00 | 0.00 | 0.00 | 27 | 1009.5 |
| 20260505024142 | 20 | 265 | 4.8 | 6.4 | 0.00 | 0.00 | 0.00 | 26 | 1009.6 |
| 20260505023639 | 20 | 269 | 1.6 | 6.4 | 0.00 | 0.00 | 0.00 | 26 | 1009.6 |
| 20260505023136 | 21 | 250 | 1.6 | 6.4 | 0.00 | 0.00 | 0.00 | 25 | 1009.4 |
| 20260505022634 | 21 | 265 | 3.2 | 6.4 | 0.00 | 0.00 | 0.00 | 24 | 1009.4 |
| 20260505022131 | 21 | 226 | 3.2 | 9.7 | 0.00 | 0.00 | 0.00 | 24 | 1009.5 |
| 20260505021627 | 21 | 253 | 3.2 | 4.8 | 0.00 | 0.00 | 0.00 | 24 | 1009.3 |
| 20260505021124 | 22 | 242 | 3.2 | 9.7 | 0.00 | 0.00 | 0.00 | 23 | 1009.2 |
| 20260505020620 | 22 | 242 | 4.8 | 11.3 | 0.00 | 0.00 | 0.00 | 23 | 1009.3 |
| 20260505020116 | 22 | 281 | 3.2 | 6.4 | 0.00 | 0.00 | 0.00 | 22 | 1009.3 |
| 20260505015613 | 22 | 258 | 1.6 | 9.7 | 0.00 | 0.00 | 0.00 | 22 | 1009.0 |
| 20260505015110 | 22 | 230 | 4.8 | 6.4 | 0.00 | 0.00 | 0.00 | 22 | 1009.2 |
| 20260505014607 | 23 | 266 | 3.2 | 4.8 | 0.00 | 0.00 | 0.00 | 22 | 1009.3 |
| 20260505014104 | 23 | 240 | 1.6 | 6.4 | 0.00 | 0.00 | 0.00 | 22 | 1009.0 |
| 20260505013601 | 23 | 285 | 3.2 | 6.4 | 0.00 | 0.00 | 0.00 | 21 | 1009.2 |
| 20260505013058 | 23 | 272 | 3.2 | 9.7 | 0.00 | 0.00 | 0.00 | 21 | 1009.2 |
| 20260505012556 | 23 | 212 | 4.8 | 6.4 | 0.00 | 0.00 | 0.00 | 21 | 1009.4 |
| 20260505012053 | 23 | 238 | 3.2 | 4.8 | 0.00 | 0.00 | 0.00 | 21 | 1009.2 |
| 20260505011548 | 24 | 299 | 3.2 | 14.5 | 0.00 | 0.00 | 0.00 | 20 | 1009.0 |
| 20260505011046 | 24 | 252 | 3.2 | 11.3 | 0.00 | 0.00 | 0.00 | 20 | 1008.9 |
| 20260505010541 | 24 | 256 | 3.2 | 11.3 | 0.00 | 0.00 | 0.00 | 20 | 1009.2 |
| 20260505010038 | 24 | 278 | 3.2 | 11.3 | 0.00 | 0.00 | 0.00 | 19 | 1009.0 |
| 20260505005534 | 25 | 255 | 6.4 | 16.1 | 0.00 | 0.00 | 0.00 | 19 | 1009.0 |
| 20260505005032 | 25 | 281 | 11.3 | 20.9 | 0.00 | 0.00 | 0.00 | 19 | 1008.8 |
| 20260505004529 | 25 | 10 | 6.4 | 16.1 | 0.00 | 0.00 | 0.00 | 19 | 1009.2 |
| 20260505004026 | 25 | 253 | 11.3 | 16.1 | 0.00 | 0.00 | 0.00 | 19 | 1009.0 |
| 20260505003523 | 25 | 236 | 6.4 | 14.5 | 0.00 | 0.00 | 0.00 | 19 | 1008.9 |
| 20260505003020 | 25 | 254 | 6.4 | 16.1 | 0.00 | 0.00 | 0.00 | 19 | 1009.2 |
| 20260505002521 | 25 | 228 | 6.4 | 22.5 | 0.00 | 0.00 | 0.00 | 19 | 1009.4 |
| 20260505002020 | 26 | 237 | 8.0 | 20.9 | 0.00 | 0.00 | 0.00 | 19 | 1009.2 |
| 20260505001517 | 26 | 271 | 8.0 | 17.7 | 0.00 | 0.00 | 0.00 | 19 | 1009.5 |
| 20260505001014 | 26 | 248 | 9.7 | 17.7 | 0.00 | 0.00 | 0.00 | 19 | 1009.4 |
| 20260505000511 | 26 | 280 | 6.4 | 20.9 | 0.00 | 0.00 | 0.00 | 19 | 1009.4 |
| 20260505000009 | 26 | 212 | 9.7 | 17.7 | 0.00 | 0.00 | 0.00 | 19 | 1009.6 |
| 20260504235506 | 26 | 298 | 9.7 | 17.7 | 0.00 | 0.00 | 0.00 | 18 | 1009.4 |
| 20260504235002 | 26 | 264 | 11.3 | 17.7 | 0.00 | 0.00 | 0.00 | 18 | 1009.5 |
| 20260504234459 | 26 | 283 | 4.8 | 17.7 | 0.00 | 0.00 | 0.00 | 17 | 1009.4 |
| 20260504233956 | 26 | 14 | 4.8 | 22.5 | 0.00 | 0.00 | 0.00 | 17 | 1009.6 |
| 20260504233451 | 26 | 275 | 3.2 | 9.7 | 0.00 | 0.00 | 0.00 | 16 | 1009.4 |
| 20260504232949 | 26 | 277 | 9.7 | 20.9 | 0.00 | 0.00 | 0.00 | 16 | 1009.7 |
| 20260504232445 | 26 | 272 | 8.0 | 24.1 | 0.00 | 0.00 | 0.00 | 15 | 1009.5 |
| 20260504231943 | 26 | 275 | 6.4 | 11.3 | 0.00 | 0.00 | 0.00 | 12 | 1009.6 |
| 20260504231439 | 26 | 2 | 4.8 | 17.7 | 0.00 | 0.00 | 0.00 | 13 | 1009.7 |
| 20260504230935 | 26 | 245 | 4.8 | 17.7 | 0.00 | 0.00 | 0.00 | 12 | 1009.5 |
| 20260504230432 | 26 | 286 | 3.2 | 16.1 | 0.00 | 0.00 | 0.00 | 11 | 1009.6 |
| 20260504225931 | 26 | 309 | 9.7 | 24.1 | 0.00 | 0.00 | 0.00 | 11 | 1009.5 |
| 20260504225428 | 27 | 276 | 11.3 | 16.1 | 0.00 | 0.00 | 0.00 | 11 | 1009.7 |
| 20260504224925 | 27 | 290 | 11.3 | 17.7 | 0.00 | 0.00 | 0.00 | 11 | 1009.7 |
| 20260504224421 | 27 | 177 | 6.4 | 27.4 | 0.00 | 0.00 | 0.00 | 11 | 1009.6 |
| 20260504223919 | 27 | 141 | 6.4 | 11.3 | 0.00 | 0.00 | 0.00 | 12 | 1009.5 |
| 20260504223414 | 28 | 247 | 8.0 | 25.7 | 0.00 | 0.00 | 0.00 | 12 | 1009.7 |
| 20260504222910 | 28 | 249 | 12.9 | 17.7 | 0.00 | 0.00 | 0.00 | 11 | 1009.6 |
| 20260504222408 | 27 | 296 | 9.7 | 20.9 | 0.00 | 0.00 | 0.00 | 12 | 1009.7 |
| 20260504221906 | 27 | 36 | 6.4 | 27.4 | 0.00 | 0.00 | 0.00 | 11 | 1009.9 |
| 20260504221402 | 27 | 223 | 8.0 | 14.5 | 0.00 | 0.00 | 0.00 | 12 | 1009.7 |
| 20260504220900 | 27 | 288 | 9.7 | 20.9 | 0.00 | 0.00 | 0.00 | 12 | 1009.7 |
| 20260504220356 | 27 | 315 | 6.4 | 17.7 | 0.00 | 0.00 | 0.00 | 12 | 1009.6 |
| 20260504215853 | 27 | 215 | 9.7 | 20.9 | 0.00 | 0.00 | 0.00 | 12 | 1009.6 |
| 20260504215350 | 27 | 249 | 4.8 | 12.9 | 0.00 | 0.00 | 0.00 | 12 | 1009.8 |
| 20260504214846 | 27 | 348 | 6.4 | 14.5 | 0.00 | 0.00 | 0.00 | 12 | 1009.8 |
| 20260504214343 | 27 | 184 | 6.4 | 29.0 | 0.00 | 0.00 | 0.00 | 12 | 1009.9 |
| 20260504213839 | 27 | 308 | 9.7 | 12.9 | 0.00 | 0.00 | 0.00 | 13 | 1009.8 |
| 20260504213335 | 28 | 317 | 9.7 | 22.5 | 0.00 | 0.00 | 0.00 | 12 | 1009.8 |
| 20260504212833 | 28 | 239 | 4.8 | 25.7 | 0.00 | 0.00 | 0.00 | 13 | 1009.7 |
| 20260504212329 | 28 | 272 | 6.4 | 16.1 | 0.00 | 0.00 | 0.00 | 12 | 1009.6 |
| 20260504211827 | 28 | 257 | 17.7 | 24.1 | 0.00 | 0.00 | 0.00 | 12 | 1010.1 |
| 20260504211328 | 28 | 223 | 11.3 | 22.5 | 0.00 | 0.00 | 0.00 | 12 | 1010.1 |
| 20260504210825 | 28 | 277 | 6.4 | 24.1 | 0.00 | 0.00 | 0.00 | 13 | 1010.1 |
| 20260504210322 | 28 | 274 | 16.1 | 29.0 | 0.00 | 0.00 | 0.00 | 13 | 1010.2 |
| 20260504205820 | 28 | 232 | 9.7 | 16.1 | 0.00 | 0.00 | 0.00 | 14 | 1010.2 |
| 20260504205317 | 28 | 273 | 6.4 | 29.0 | 0.00 | 0.00 | 0.00 | 13 | 1010.3 |
| 20260504204815 | 28 | 312 | 11.3 | 14.5 | 0.00 | 0.00 | 0.00 | 14 | 1010.4 |
| 20260504204313 | 28 | 209 | 8.0 | 16.1 | 0.00 | 0.00 | 0.00 | 16 | 1010.4 |
| 20260504203813 | 28 | 282 | 9.7 | 16.1 | 0.00 | 0.00 | 0.00 | 16 | 1010.4 |
| 20260504203309 | 29 | 273 | 6.4 | 16.1 | 0.00 | 0.00 | 0.00 | 17 | 1010.6 |
| 20260504202804 | 29 | 307 | 6.4 | 12.9 | 0.00 | 0.00 | 0.00 | 18 | 1010.4 |
| 20260504202304 | 29 | 315 | 8.0 | 14.5 | 0.00 | 0.00 | 0.00 | 19 | 1010.7 |
| 20260504201758 | 28 | 218 | 4.8 | 17.7 | 0.00 | 0.00 | 0.00 | 20 | 1011.0 |